User: anonymous   Login
Location: Ripley
(48.3812°N, 115.4473°W)
Time: 11:42:20
(UTC+00:00)
Language:

DMSP B5D1-1 - Orbit

View from above orbital plane
View from above orbital plane
View from above satellite
View from above satellite

Ground track
Ground track

The orbit data is extracted from the following two-line orbital elements,

1  9415U 76091A   22338.12960445  .00000087  00000-0  52903-4 0  9999
2  9415  98.2750 174.1485 0018862 105.1244 255.2026 14.26564120168293
Epoch (UTC): 04 December 2022 03:06:37
Eccentricity: 0.0018862
inclination: 98.2750°
perigee height: 789 km
apogee height: 817 km
right ascension of ascending node: 174.1485°
argument of perigee: 105.1244°
revolutions per day: 14.26564120
mean anomaly at epoch: 255.2026°
orbit number at epoch: 16829

The dashed part of the orbit path shows where the satellite is in the earth's shadow,  

DLR